SL-16 DEB, 23275

Orbit data source: Space-Track

SL-16 DEB, 23275 is space debris in LEO originally from a launch on Fri, 25 Dec 1992 UTC launched from the Tyuratam Missile And Space Complex (TTMTR). Debris objects in space refer to the collection of defunct objects orbiting the Earth. Examples of debris include non-operational satellites, rocket bodies, and fragments generated from explosions, collisions, or faulty payload assembly.

Loading next visibility...
Identifier
23275, 1992-093JF
Orbit
LEO
Country
Flag of CISCIS
Related business
Manufacturer
Unknown
Mission
Spacecraft
Bus & Motor
Unknown
Mass
Unknown
Launch date (UTC)
1992-12-25 (33 years ago)
Launch vehicle
Unknown
Launch site
Tyuratam Missile And Space Complex (TTMTR)
Object type
Payload
Rocket body
Debris
Shape & HBR
Unknown shape, 0.1 m
Radar Cross Section
Small (<0.1 m²)

Expand to show TLE details & history
Last TLE update: 3 days ago

TLE from 3 days ago
0 SL-16 DEB
1 23275U 92093JF  25295.07848303  .00000549  00000-0  39621-3 0  9990
2 23275  71.2472 324.7333 0103539  14.0697 346.3263 13.98355526627893
Epoch: 2025-10-22T01:53Z
TLE epoch observation values (Epoch: 2025-10-22T01:53:00.933Z)
Latitude
-0.00006°
Longitude
-94.27786°
Altitude
828.71 km
Speed
7.476 km/s
True Right ascension
21h 38m 55s
True Declination
0° 00' 00"
Sunlit
Object was in daylight at epoch
Visualization orbit readout
Latitude
Unknown
Longitude
Unknown
Altitude
Unknown
Speed
Unknown
Apparent Right ascension
Unknown
Apparent Declination
Unknown
Sunlit
N/A
Visualization observer readout
Local Sidereal Time
12:53:34
Azimuth
Unknown
Elevation
Unknown
Doppler factor
Unknown
Orbital elements
Apogee altitude
972.742 km
Perigee altitude
822.082 km
Semi-major axis
7,275.549 km
Eccentricity
0.01035
Inclination
71.2472°
RAAN
324.7333°
Arg. of periapsis
14.0697°
True anomaly
346.04226°
Mean anomaly
346.3263°
Eccentric anomaly
346.18464°
Mean motion
3.49739 °/min
Orbital period
102.93 mins
BSTAR
0.00039621
Loading maneuver chart data...
Computing Atmospheric mass density...

Documentation

Showing up to 5 results
|